Home   Weather   Moscow   Past weeks

Flag for USA Past Weather in Moscow, Idaho, USA — Yesterday and Last 2 Weeks

Now
20 °F

Sunny.


Feels Like: 8 °F
Forecast: 7 / 26 °F
Wind: 10 mph from East

Location: Pullman / Moscow Regional Airport

Current Time: Jan 16, 2017 at 11:28:54 am

Latest Report: Jan 16, 2017 at 10:53 am


Visibility: 10 mi

Pressure: 30.50 "Hg (27.59 "Hg at 781m altitude)

Humidity: 78%

Dew Point: 14 °F

Location of MoscowLocation

Past Weather in Moscow — Graph

°F

Moscow Temperature Yesterday

Maximum temperature yesterday: 10 °F (at 1:02 pm)
Minimum temperature yesterday: -2 °F (at 2:53 am)
Average temperature yesterday: 3 °F

High & Low Weather Summary for the Past Weeks

 TemperatureHumidityPressure
High36 °F (Jan 8, 6:53 pm)100% (Jan 8, 10:25 pm)30.71 "Hg (Jan 8, 10:25 pm)
Low-5 °F (Jan 14, 8:01 am)45% (Jan 4, 10:53 am)29.49 "Hg (Jan 11, 3:08 am)
Average14 °F83%30.12 "Hg
* Reported Jan 1 9:01 am — Jan 16 9:53 am, Moscow, Weather by CustomWeather, © 2017

Note: Actual official high and low records may vary slightly from our data, if they occured in-between our weather recording intervals... More about our weather records

Advertising

Moscow Weather History for the Previous 24 Hours

Scroll right to see more
 ConditionsComfort  
Time TempWeatherWind HumidityBarometerVisibility
9:53 am
Mon, Jan 16
17 °FSunny.12 mph80%30.52 "Hg10 mi
8:53 am13 °FSunny.No wind92%30.55 "Hg10 mi
7:53 am11 °FSunny.6 mph84%30.50 "Hg10 mi
6:53 am3 °FClear.No wind84%30.55 "Hg10 mi
5:53 am7 °FClear.No wind87%30.55 "Hg10 mi
4:53 am2 °FClear.No wind83%30.54 "Hg10 mi
4:08 am0 °FIce fog.No wind83%30.37 "Hg4 mi
3:53 am-2 °FClear.No wind86%30.56 "Hg8 mi
3:05 am-3 °FIce fog.No wind86%30.38 "Hg6 mi
2:53 am-2 °FIce fog.No wind83%30.58 "Hg2 mi
1:53 am-3 °FIce fog.No wind86%30.57 "Hg1 mi
1:43 am-2 °FIce fog.No wind83%30.40 "Hg2 mi
1:19 am-3 °FIce fog.No wind86%30.39 "Hg1 mi
12:58 am-3 °FIce fog.No wind86%30.38 "Hg2 mi
12:17 am-2 °FIce fog.No wind96%30.38 "Hg1 mi
11:53 pm
Sun, Jan 15
-2 °FIce fog.3 mph96%30.56 "Hg0 mi
10:53 pm-2 °FIce fog.No wind86%30.57 "Hg0 mi
9:53 pm-1 °FIce fog.No wind95%30.56 "Hg0 mi
8:53 pm1 °FIce fog.No wind92%30.56 "Hg0 mi
7:53 pm2 °FIce fog.No wind92%30.55 "Hg0 mi
7:07 pm2 °FIce fog.No wind83%30.37 "Hg0 mi
6:34 pm0 °FIce fog.No wind83%30.36 "Hg1 mi
6:04 pm-1 °FPassing clouds.No wind86%30.35 "Hg7 mi
5:53 pm-1 °FPassing clouds.No wind91%30.53 "Hg7 mi
4:53 pm2 °FClear.No wind83%30.52 "Hg7 mi
3:53 pm6 °FIce fog.5 mph87%30.51 "Hg5 mi
3:21 pm7 °FIce fog.6 mph83%30.33 "Hg5 mi
3:07 pm7 °FIce fog.6 mph83%30.33 "Hg4 mi
2:53 pm7 °FScattered clouds.5 mph83%30.51 "Hg7 mi
1:53 pm10 °FSunny.5 mph88%30.49 "Hg7 mi
1:22 pm10 °FScattered clouds.No wind92%30.32 "Hg7 mi
1:02 pm10 °FIce fog.No wind84%30.32 "Hg4 mi
12:53 pm9 °FSunny.No wind88%30.48 "Hg8 mi
11:53 am8 °FIce fog.5 mph87%30.51 "Hg5 mi
11:44 am9 °FIce fog.6 mph84%30.34 "Hg3 mi
Weather by CustomWeather, © 2017

See weather overviewHow to use our weather pages